| time (UTC) | temp C | wind direction | speed KPH | gust KPH | rain 1hr cm | rain 24hr cm | rain mn cm | humidity % | barometer mb |
| 20260901104546 | 23 | 0 | 0.0 | 0.0 | 0.00 | 0.00 | 0.00 | 16 | 1017.5 |
| 20260901103111 | 23 | 0 | 0.0 | 0.0 | 0.00 | 0.00 | 0.00 | 16 | 1017.4 |
| 20260901101556 | 23 | 0 | 0.0 | 0.0 | 0.00 | 0.00 | 0.00 | 18 | 1017.3 |
| 20260901100056 | 23 | 0 | 0.0 | 0.0 | 0.00 | 0.00 | 0.00 | 19 | 1017.3 |
| 20260901094555 | 23 | 0 | 0.0 | 0.0 | 0.00 | 0.00 | 0.00 | 21 | 1017.2 |
| 20260901093119 | 23 | 0 | 0.0 | 0.0 | 0.00 | 0.00 | 0.00 | 23 | 1017.3 |
| 20260901091605 | 23 | 0 | 0.0 | 0.0 | 0.00 | 0.00 | 0.00 | 24 | 1017.4 |
| 20260901090056 | 23 | 0 | 0.0 | 0.0 | 0.00 | 0.00 | 0.00 | 27 | 1017.4 |
| 20260901084552 | 23 | 0 | 0.0 | 0.0 | 0.00 | 0.00 | 0.00 | 28 | 1017.6 |
| 20260901083050 | 24 | 0 | 0.0 | 0.0 | 0.00 | 0.00 | 0.00 | 28 | 1017.7 |
| 20260901081546 | 24 | 0 | 0.0 | 0.0 | 0.00 | 0.00 | 0.00 | 28 | 1017.9 |
| 20260901080054 | 24 | 0 | 0.0 | 0.0 | 0.00 | 0.00 | 0.00 | 27 | 1017.8 |
| 20260901074553 | 24 | 0 | 0.0 | 0.0 | 0.00 | 0.00 | 0.00 | 27 | 1017.6 |
| 20260901073103 | 24 | 0 | 0.0 | 0.0 | 0.00 | 0.00 | 0.00 | 26 | 1017.7 |
| 20260901071603 | 24 | 0 | 0.0 | 0.0 | 0.00 | 0.00 | 0.00 | 26 | 1017.9 |
| 20260901070057 | 24 | 0 | 0.0 | 0.0 | 0.00 | 0.00 | 0.00 | 25 | 1017.9 |
| 20260901064555 | 24 | 0 | 0.0 | 0.0 | 0.00 | 0.00 | 0.00 | 29 | 1017.9 |
| 20260901063055 | 24 | 0 | 0.0 | 0.0 | 0.00 | 0.00 | 0.00 | 31 | 1018.1 |
| 20260901061555 | 24 | 0 | 0.0 | 0.0 | 0.00 | 0.00 | 0.00 | 30 | 1018.2 |
| 20260901060050 | 24 | 0 | 0.0 | 0.0 | 0.00 | 0.00 | 0.00 | 31 | 1018.2 |
| 20260901054556 | 23 | 0 | 0.0 | 0.0 | 0.00 | 0.00 | 0.00 | 33 | 1018.3 |
| 20260901053118 | 23 | 0 | 0.0 | 0.0 | 0.00 | 0.00 | 0.00 | 38 | 1018.4 |
| 20260901051549 | 23 | 0 | 0.0 | 0.0 | 0.00 | 0.00 | 0.00 | 42 | 1018.5 |
| 20260901050055 | 23 | 0 | 0.0 | 0.0 | 0.00 | 0.00 | 0.00 | 45 | 1018.3 |
| 20260901044554 | 23 | 0 | 0.0 | 0.0 | 0.00 | 0.00 | 0.00 | 49 | 1018.4 |
| 20260901043118 | 23 | 0 | 0.0 | 0.0 | 0.00 | 0.00 | 0.00 | 51 | 1018.2 |
| 20260901041607 | 23 | 0 | 0.0 | 0.0 | 0.00 | 0.00 | 0.00 | 53 | 1018.2 |
| 20260901040054 | 23 | 0 | 0.0 | 0.0 | 0.00 | 0.00 | 0.00 | 57 | 1018.2 |
| 20260901034604 | 23 | 0 | 0.0 | 0.0 | 0.00 | 0.00 | 0.00 | 58 | 1018.0 |
| 20260901033104 | 24 | 0 | 0.0 | 0.0 | 0.00 | 0.00 | 0.00 | 61 | 1017.9 |
| 20260901031551 | 24 | 0 | 0.0 | 0.0 | 0.00 | 0.00 | 0.00 | 63 | 1017.9 |
| 20260901030055 | 24 | 0 | 0.0 | 0.0 | 0.00 | 0.00 | 0.00 | 65 | 1017.9 |
| 20260901024601 | 24 | 0 | 0.0 | 0.0 | 0.00 | 0.00 | 0.00 | 67 | 1018.0 |
| 20260901023054 | 24 | 0 | 0.0 | 0.0 | 0.00 | 0.00 | 0.00 | 68 | 1017.9 |
| 20260901021546 | 25 | 0 | 0.0 | 0.0 | 0.00 | 0.00 | 0.00 | 68 | 1017.9 |
| 20260901020058 | 25 | 0 | 0.0 | 0.0 | 0.00 | 0.00 | 0.00 | 70 | 1018.0 |
| 20260901014553 | 25 | 0 | 0.0 | 0.0 | 0.00 | 0.00 | 0.00 | 72 | 1017.9 |
| 20260901013052 | 25 | 0 | 0.0 | 0.0 | 0.00 | 0.00 | 0.00 | 72 | 1017.9 |
| 20260901011559 | 25 | 0 | 0.0 | 0.0 | 0.00 | 0.00 | 0.00 | 72 | 1017.6 |
| 20260901010052 | 25 | 0 | 0.0 | 0.0 | 0.00 | 0.00 | 0.00 | 74 | 1017.4 |
| 20260901004602 | 25 | 0 | 0.0 | 0.0 | 0.00 | 0.00 | 0.00 | 76 | 1017.2 |
| 20260901003100 | 25 | 0 | 0.0 | 0.0 | 0.00 | 0.00 | 0.00 | 76 | 1017.0 |
| 20260901001555 | 26 | 0 | 0.0 | 0.0 | 0.00 | 0.00 | 0.00 | 76 | 1017.1 |
| 20260901000051 | 26 | 0 | 0.0 | 0.0 | 0.00 | 0.00 | 0.00 | 76 | 1016.9 |
| 20260831234557 | 26 | 0 | 0.0 | 0.0 | 0.00 | 0.00 | 0.00 | 76 | 1017.0 |
| 20260831233056 | 26 | 0 | 0.0 | 0.0 | 0.00 | 0.00 | 0.00 | 76 | 1016.8 |
| 20260831231551 | 27 | 0 | 0.0 | 0.0 | 0.00 | 0.00 | 0.00 | 76 | 1016.8 |
| 20260831230048 | 27 | 0 | 0.0 | 0.0 | 0.00 | 0.00 | 0.00 | 76 | 1016.7 |
| 20260831224543 | 27 | 0 | 0.0 | 0.0 | 0.00 | 0.00 | 0.00 | 75 | 1016.7 |
| 20260831223048 | 27 | 0 | 0.0 | 0.0 | 0.00 | 0.00 | 0.00 | 75 | 1016.7 |
| 20260831221546 | 27 | 0 | 0.0 | 0.0 | 0.00 | 0.00 | 0.00 | 74 | 1016.7 |
| 20260831220123 | 27 | 0 | 0.0 | 0.0 | 0.00 | 0.00 | 0.00 | 73 | 1016.8 |
| 20260831214549 | 28 | 0 | 0.0 | 0.0 | 0.00 | 0.00 | 0.00 | 74 | 1017.0 |
| 20260831213105 | 28 | 0 | 0.0 | 0.0 | 0.00 | 0.00 | 0.00 | 73 | 1017.0 |
| 20260831211558 | 28 | 0 | 0.0 | 0.0 | 0.00 | 0.00 | 0.00 | 71 | 1017.0 |
| 20260831210053 | 28 | 0 | 0.0 | 0.0 | 0.00 | 0.00 | 0.00 | 71 | 1017.1 |
| 20260831204556 | 29 | 0 | 0.0 | 0.0 | 0.00 | 0.05 | 0.00 | 73 | 1017.1 |
| 20260831203057 | 29 | 0 | 0.0 | 0.0 | 0.00 | 0.05 | 0.00 | 67 | 1017.3 |
| 20260831201557 | 29 | 0 | 0.0 | 0.0 | 0.00 | 0.05 | 0.00 | 69 | 1017.4 |
| 20260831200051 | 29 | 0 | 0.0 | 0.0 | 0.00 | 0.05 | 0.00 | 64 | 1017.4 |
| 20260831194556 | 28 | 0 | 0.0 | 0.0 | 0.00 | 0.05 | 0.00 | 68 | 1017.6 |
| 20260831193056 | 28 | 0 | 0.0 | 0.0 | 0.00 | 0.05 | 0.00 | 70 | 1017.9 |
| 20260831191550 | 28 | 0 | 0.0 | 0.0 | 0.00 | 0.05 | 0.00 | 75 | 1018.0 |
| 20260831190057 | 28 | 0 | 0.0 | 0.0 | 0.00 | 0.05 | 0.00 | 71 | 1018.1 |
| 20260831184557 | 29 | 0 | 0.0 | 0.0 | 0.00 | 0.05 | 0.00 | 70 | 1018.4 |
| 20260831183054 | 29 | 0 | 0.0 | 0.0 | 0.00 | 0.05 | 0.00 | 67 | 1018.4 |
| 20260831181557 | 29 | 0 | 0.0 | 0.0 | 0.00 | 0.05 | 0.00 | 68 | 1018.5 |
| 20260831180057 | 28 | 0 | 0.0 | 0.0 | 0.00 | 0.05 | 0.00 | 72 | 1018.6 |
| 20260831174554 | 28 | 0 | 0.0 | 0.0 | 0.00 | 0.05 | 0.00 | 74 | 1018.9 |
| 20260831173052 | 28 | 0 | 0.0 | 0.0 | 0.00 | 0.05 | 0.00 | 73 | 1018.8 |
| 20260831171600 | 28 | 0 | 0.0 | 0.0 | 0.00 | 0.05 | 0.00 | 75 | 1018.8 |
| 20260831170057 | 27 | 0 | 0.0 | 0.0 | 0.00 | 0.05 | 0.00 | 74 | 1019.0 |
| 20260831164557 | 27 | 0 | 0.0 | 0.0 | 0.00 | 0.05 | 0.00 | 74 | 1019.1 |
| 20260831163058 | 27 | 0 | 0.0 | 0.0 | 0.00 | 0.05 | 0.00 | 67 | 1019.2 |
| 20260831161602 | 26 | 0 | 0.0 | 0.0 | 0.00 | 0.05 | 0.00 | 55 | 1019.3 |
| 20260831160117 | 26 | 0 | 0.0 | 0.0 | 0.00 | 0.05 | 0.00 | 33 | 1019.5 |
| 20260831154611 | 25 | 0 | 0.0 | 0.0 | 0.00 | 0.05 | 0.00 | 13 | 1019.7 |
| 20260831153126 | 25 | 0 | 0.0 | 0.0 | 0.00 | 0.05 | 0.00 | 1 | 1019.9 |
| 20260831151558 | 24 | 0 | 0.0 | 0.0 | 0.00 | 0.05 | 0.00 | 100 | 1019.9 |
| 20260831150049 | 24 | 0 | 0.0 | 0.0 | 0.00 | 0.05 | 0.00 | 100 | 1019.8 |
| 20260831144544 | 23 | 0 | 0.0 | 0.0 | 0.00 | 0.05 | 0.00 | 1 | 1019.8 |
| 20260831143059 | 23 | 0 | 0.0 | 0.0 | 0.00 | 0.05 | 0.00 | 2 | 1019.8 |
| 20260831141555 | 23 | 0 | 0.0 | 0.0 | 0.00 | 0.05 | 0.00 | 3 | 1019.6 |
| 20260831140046 | 23 | 0 | 0.0 | 0.0 | 0.00 | 0.05 | 0.00 | 3 | 1019.5 |
| 20260831134605 | 23 | 0 | 0.0 | 0.0 | 0.00 | 0.05 | 0.00 | 4 | 1019.3 |
| 20260831133059 | 22 | 0 | 0.0 | 0.0 | 0.00 | 0.05 | 0.00 | 4 | 1019.5 |
| 20260831131554 | 22 | 0 | 0.0 | 0.0 | 0.00 | 0.05 | 0.00 | 6 | 1019.5 |
| 20260831130057 | 21 | 0 | 0.0 | 0.0 | 0.00 | 0.05 | 0.00 | 7 | 1019.5 |
| 20260831124601 | 21 | 0 | 0.0 | 0.0 | 0.00 | 0.05 | 0.00 | 8 | 1019.5 |
| 20260831123056 | 20 | 0 | 0.0 | 0.0 | 0.00 | 0.05 | 0.00 | 8 | 1019.8 |
| 20260831121550 | 20 | 0 | 0.0 | 0.0 | 0.00 | 0.05 | 0.00 | 8 | 1019.6 |
| 20260831120131 | 20 | 0 | 0.0 | 0.0 | 0.00 | 0.05 | 0.00 | 8 | 1019.5 |
| 20260831114558 | 20 | 0 | 0.0 | 0.0 | 0.00 | 0.05 | 0.00 | 9 | 1019.4 |
| 20260831113058 | 20 | 0 | 0.0 | 0.0 | 0.00 | 0.05 | 0.00 | 9 | 1019.4 |
| 20260831111554 | 20 | 0 | 0.0 | 0.0 | 0.00 | 0.05 | 0.00 | 9 | 1019.4 |
| 20260831110047 | 20 | 0 | 0.0 | 0.0 | 0.00 | 0.05 | 0.00 | 9 | 1019.3 |